Location: St. Louis
(38.6270°N, 90.1994°W)
Time: 12:43:48
(UTC-06:00)

Transit 4A - Pass Details

Date: 07 December 2021
Orbit: 864 x 980 km, 66.8° (Epoch: 16 January)

Event Time Altitude Azimuth Distance (km) Brightness Sun altitude
Rises 02:48:17 0° 337° (NNW) 3,619 - -49.4°
Reaches altitude 10° 02:50:59 10° 345° (NNW) 2,688 - -48.9°
Maximum altitude 02:56:52 40° 54° (NE) 1,391 - -47.7°
Exits shadow 03:02:26 12° 121° (ESE) 2,592 10.6 -46.7°
Drops below altitude 10° 03:02:50 10° 123° (ESE) 2,721 10.7 -46.6°
Sets 03:05:34 0° 131° (SE) 3,670 11.4 -46.0°
